[[{"header":{"parameterUnit":"m.s-1","parameterCategory":1,"la1":30.2991,"la2":30.254,"lo1":-89.0895,"lo2":-89.0444,"dy":0.0017,"dx":0.0017,"nx":28,"ny":28,"refTime":"2025-12-17T03:00:00:Z","depth":0,"parameterNumber":2,"parameterNumberName":"U-component_of_WINDS"},"data":[0,0,0,0,0,0,0,0,0,0,0,0,0,0,0,0,0,0,0,0,0,0,0,0,0,0,0,0,0,0,0,0,0,0,0,0,0,0,0,0,0,0,0,0,0,0,0,0,0,0,0,0,0,0,0,0,0,0,-5.8128,-5.8129,0,-5.8174,-5.8175,-5.8175,-5.8014,-5.8009,-5.8004,-5.8,-5.8051,-5.8057,-5.8062,0,0,0,0,0,0,0,0,0,0,0,0,0,-5.7906,-5.7911,-5.8128,-5.8129,-5.8129,-5.8174,-5.8175,-5.8176,-5.8015,-5.8009,-5.8003,-5.7997,-5.8049,-5.8056,-5.8063,0,0,0,0,0,0,0,0,0,0,0,0,0,-5.7982,-5.7912,-5.8128,-5.8054,-5.8048,-5.8174,-5.8175,-5.8176,-5.8016,-5.8009,-5.8001,-5.7995,-5.8047,-5.8055,-5.8064,-5.8264,0,0,-5.8091,-5.8095,0,0,0,0,0,0,0,0,-5.7978,-5.7991,-5.8065,-5.806,-5.8053,-5.8081,-5.8115,-5.8206,-5.8018,-5.8028,-5.7999,-5.7991,-5.8067,-5.8074,-5.8098,-5.8267,-5.8269,-5.8092,-5.8097,-5.8101,-5.8103,0,0,0,0,0,0,0,-5.7973,-5.7988,-5.8146,-5.8066,-5.8059,-5.8021,-5.8023,-5.8132,-5.8088,-5.8027,-5.8015,-5.8023,-5.8062,-5.809,-5.8099,-5.827,-5.8092,-5.8099,-5.8105,-5.8108,-5.8607,-5.8615,0,0,0,0,0,0,-5.7977,-5.7984,-5.8145,-5.8148,-5.7997,-5.8031,-5.8034,-5.8079,-5.8086,-5.808,-5.8029,-5.8015,-5.8079,-5.8088,-5.81,-5.8336,-5.8101,-5.8109,-5.8114,-5.8599,-5.8609,-5.8617,0,0,0,0,0,0,-5.7973,-5.7993,-5.8143,-5.8063,-5.8079,-5.8042,-5.8095,-5.8084,-5.8112,-5.8088,-5.808,-5.8065,-5.8073,-5.8087,-5.8225,-5.8336,-5.8113,-5.8121,-5.859,-5.8602,-5.8613,-5.881,0,0,0,0,0,0,-5.7967,-5.7992,-5.8067,-5.8066,-5.8084,-5.8267,-5.8101,-5.809,-5.8127,-5.8109,-5.812,-5.8115,-5.8069,-5.8213,-5.8234,-5.8344,-5.8128,-5.858,-5.8595,-5.8609,-5.8794,-5.8827,-5.8856,0,0,0,0,0,-5.796,-5.8121,-5.8071,-5.8092,-5.8176,-5.8273,-5.8284,-5.8227,-5.8136,-5.8212,-5.8197,-5.8114,-5.832,-5.8228,-5.825,-5.8365,-5.8572,-5.8591,-5.8608,-5.878,-5.8821,-5.8855,0,0,0,0,0,0,-5.8136,-5.8119,-5.8064,-5.8229,-5.8254,-5.8246,-5.8339,-5.8272,-5.8324,-5.8305,-5.8233,-5.8237,-5.8388,-5.839,-5.8288,-5.856,-5.8431,-5.8454,-5.8554,-5.8592,-5.8623,-5.862,-5.8135,0,0,0,0,0,-5.8195,-5.8273,-5.8254,-5.8402,-5.8417,-5.8377,-5.8417,-5.8371,-5.8394,-5.8404,-5.8398,-5.8426,-5.8496,-5.8544,-5.8608,-5.8793,-5.8794,-5.8883,-5.8914,-5.894,-5.8961,-5.9061,-5.9101,-5.8676,-5.8676,-5.8676,0,0,-5.8316,-5.8316,-5.837,-5.8438,-5.8451,-5.8536,-5.8387,-5.8482,-5.8545,-5.8418,-5.8548,-5.8546,-5.8571,-5.8734,-5.8805,-5.874,-5.9079,-5.8963,-5.8984,-5.8991,-5.9084,-5.9124,-5.916,-5.8688,-5.8686,-5.8684,0,0,-5.858,-5.8587,-5.8712,-5.8729,-5.8751,-5.8723,-5.8754,-5.8756,-5.8749,-5.8878,-5.8785,-5.886,-5.8983,-5.9005,-5.9032,-5.9308,-5.9234,-5.933,-5.9494,-5.9593,-5.9626,-5.9655,-5.9755,-5.9791,-5.9351,-5.9352,-5.9352,0,-5.8728,-5.885,-5.8785,-5.8888,-5.8921,-5.881,-5.8937,-5.8957,-5.9,-5.9026,-5.8952,-5.9105,-5.9114,-5.9281,-5.9349,-5.9374,-5.9408,-5.9329,-5.9626,-5.9655,-5.9682,-5.9776,-5.9813,-5.9364,-5.9362,-5.9361,-5.936,0,-5.9032,-5.9119,-5.9218,-5.9261,-5.9305,-5.942,-5.9374,-5.9427,-5.9378,-5.9359,-5.9493,-5.95,-5.9563,-5.96,-5.9553,-5.9762,-5.9721,-5.9638,-5.9506,-5.9735,-5.9822,-5.9858,-5.938,-5.9376,-5.9373,-5.937,0,0,-5.9408,-5.9415,-5.9452,-5.9471,-5.9488,-5.9555,-5.9666,-5.9727,-5.9775,-5.9809,-5.9901,-6.0008,-5.9932,-5.9964,-5.9919,-6.0005,-6.0225,-5.9911,-5.9911,-5.9971,-6.0457,-6.052,-6.0563,-6.0176,-6.0182,-6.0188,-6.0456,0,-5.9669,-5.9856,-5.9801,-5.999,-6.0071,-5.9967,-6.0064,-6.0086,-6.0072,-6.014,-6.0123,-6.0201,-6.0094,-6.0113,-6.0194,-6.0181,-6.0322,-6.0161,-6.0263,-6.0267,-6.026,-6.0608,-6.0674,-6.0927,-6.0489,-6.0495,-6.0499,0,-5.9997,-6.0043,-6.0241,-6.0246,-6.0278,-6.0365,-6.0418,-6.0483,-6.0508,-6.0491,-6.0528,-6.0465,-6.0576,-6.0444,-6.0597,-6.0489,-6.0527,-6.0528,-6.0536,-6.0544,-6.0397,-6.0627,-6.1006,-6.1044,-6.0552,-6.0548,-6.0544,0,-6.0253,-6.0365,-6.0497,-6.0517,-6.0526,-6.0591,-6.0598,-6.0614,-6.0656,-6.0703,-6.0729,-6.0789,-6.0822,-6.0871,-6.0827,-6.0735,-6.0988,-6.0852,-6.0979,-6.0981,-6.1037,-6.1034,-6.1429,-6.1061,-6.1061,-6.106,-6.1059,0,-6.055,-6.0675,-6.0613,-6.0695,-6.0832,-6.0769,-6.0908,-6.0904,-6.092,-6.1,-6.0915,-6.0993,-6.093,-6.1003,-6.097,-6.1102,-6.1118,-6.1109,-6.1099,-6.1117,-6.1118,-6.1142,-6.1123,-6.107,-6.1068,-6.1066,-6.1064,0,-6.0859,-6.0822,-6.096,-6.0958,-6.0961,-6.1063,-6.1061,-6.1138,-6.1118,-6.1221,-6.1242,-6.1211,-6.1292,-6.1254,-6.1339,-6.1317,-6.1488,-6.1454,-6.148,-6.1471,-6.1601,-6.159,-6.2025,-6.208,-6.1676,-6.168,-6.1684,0,-6.1051,-6.1145,-6.1153,-6.1201,-6.1213,-6.1291,-6.1332,-6.1275,-6.1322,-6.1358,-6.1431,-6.1505,-6.1561,-6.1697,-6.1683,-6.1748,-6.1716,-6.1864,-6.1725,-6.1741,-6.172,-6.1715,-6.1725,-6.1892,-6.1897,-6.1901,-6.1904,0,-6.1397,-6.1374,-6.1437,-6.1495,-6.1547,-6.1589,-6.1625,-6.1669,-6.1613,-6.1671,-6.1752,-6.1796,-6.1883,-6.1959,-6.2017,-6.2025,-6.1957,-6.1948,-6.1981,-6.2001,-6.2012,-6.2009,-6.1557,-6.1938,-6.1934,-6.1932,-6.193,-6.1929,-6.1654,-6.1733,-6.1752,-6.1825,-6.1845,-6.1881,-6.1953,-6.1943,-6.2009,-6.2075,-6.2038,-6.2135,-6.2158,-6.2228,-6.2247,-6.2323,-6.2264,-6.2312,-6.2324,-6.2337,-6.2355,-6.2,-6.2333,-6.2332,-6.2331,-6.233,-6.2329,0,-6.1996,-6.2003,-6.2071,-6.2123,-6.2182,-6.2111,-6.2147,-6.2201,-6.2287,-6.2314,-6.2371,-6.2467,-6.254,-6.2533,-6.26,-6.2663,-6.2633,-6.2683,-6.2678,-6.2681,-6.2403,-6.2368,-6.2705,-6.2705,-6.2705,-6.2705,-6.2705,-6.2705,-6.218,-6.2311,-6.2291,-6.2432,-6.2438,-6.2532,-6.2559,-6.2592,-6.2614,-6.2724,-6.2784,-6.2778,-6.2793,-6.2861,-6.2926,-6.2922,-6.2951,-6.3013,-6.2998,-6.2738,-6.2701,-6.2665,-6.2632,-6.3019,-6.302,-6.327,-6.3272,-6.3274]},{"header":{"parameterUnit":"m.s-1","parameterCategory":1,"la1":30.2991,"la2":30.254,"lo1":-89.0895,"lo2":-89.0444,"dy":0.0017,"dx":0.0017,"nx":28,"ny":28,"refTime":"2025-12-17T03:00:00:Z","depth":0,"parameterNumber":3,"parameterNumberName":"V-component_of_WINDS"},"data":[0,0,0,0,0,0,0,0,0,0,0,0,0,0,0,0,0,0,0,0,0,0,0,0,0,0,0,0,0,0,0,0,0,0,0,0,0,0,0,0,0,0,0,0,0,0,0,0,0,0,0,0,0,0,0,0,0,0,-0.6172,-0.6172,0,-0.6186,-0.6186,-0.6186,-0.6189,-0.6189,-0.6189,-0.6189,-0.6203,-0.6204,-0.6204,0,0,0,0,0,0,0,0,0,0,0,0,0,-0.6145,-0.6145,-0.6172,-0.6172,-0.6172,-0.6186,-0.6186,-0.6186,-0.6189,-0.6189,-0.6189,-0.6189,-0.6203,-0.6204,-0.6204,0,0,0,0,0,0,0,0,0,0,0,0,0,-0.6157,-0.6145,-0.6172,-0.6175,-0.6176,-0.6186,-0.6186,-0.6187,-0.6189,-0.6189,-0.6189,-0.6189,-0.6203,-0.6204,-0.6204,-0.6212,0,0,-0.6207,-0.6207,0,0,0,0,0,0,0,0,-0.6157,-0.6158,-0.6174,-0.6175,-0.6175,-0.6186,-0.6182,-0.6195,-0.6189,-0.6184,-0.6189,-0.6189,-0.6198,-0.6199,-0.6202,-0.6213,-0.6214,-0.6207,-0.6207,-0.6208,-0.6208,0,0,0,0,0,0,0,-0.6156,-0.6158,-0.6177,-0.6175,-0.6175,-0.6175,-0.6177,-0.6185,-0.6192,-0.6184,-0.6185,-0.6186,-0.6198,-0.6201,-0.6202,-0.6214,-0.6207,-0.6207,-0.6208,-0.6208,-0.623,-0.623,0,0,0,0,0,0,-0.6154,-0.6157,-0.6177,-0.6178,-0.6165,-0.6176,-0.6178,-0.6183,-0.6192,-0.6193,-0.6187,-0.6186,-0.62,-0.6201,-0.6203,-0.6211,-0.6208,-0.6208,-0.6209,-0.623,-0.623,-0.623,0,0,0,0,0,0,-0.6154,-0.6156,-0.6176,-0.6167,-0.617,-0.6177,-0.6182,-0.6183,-0.6186,-0.6193,-0.6194,-0.6189,-0.62,-0.6202,-0.6209,-0.6212,-0.6209,-0.6209,-0.623,-0.623,-0.623,-0.6229,0,0,0,0,0,0,-0.6153,-0.6156,-0.616,-0.6168,-0.6171,-0.6184,-0.6182,-0.6183,-0.6188,-0.6188,-0.6195,-0.6197,-0.62,-0.6208,-0.621,-0.6213,-0.621,-0.623,-0.623,-0.623,-0.6229,-0.623,-0.623,0,0,0,0,0,-0.6152,-0.6159,-0.616,-0.6162,-0.6175,-0.6184,-0.6185,-0.6189,-0.6188,-0.6191,-0.6195,-0.6196,-0.6211,-0.6209,-0.6211,-0.6214,-0.6229,-0.623,-0.623,-0.6229,-0.623,-0.623,0,0,0,0,0,0,-0.6152,-0.6161,-0.6161,-0.6172,-0.6177,-0.6184,-0.6189,-0.619,-0.6196,-0.6195,-0.62,-0.6201,-0.6208,-0.6212,-0.621,-0.6221,-0.622,-0.6221,-0.6219,-0.6219,-0.6219,-0.6218,-0.621,0,0,0,0,0,-0.6154,-0.616,-0.6167,-0.6175,-0.6177,-0.6182,-0.6186,-0.6188,-0.6194,-0.6196,-0.6201,-0.6206,-0.6212,-0.6216,-0.6222,-0.6229,-0.6231,-0.6232,-0.6233,-0.6233,-0.6233,-0.6236,-0.6237,-0.6231,-0.6231,-0.6231,0,0,-0.6156,-0.6161,-0.6166,-0.6175,-0.6179,-0.6185,-0.6184,-0.6191,-0.6195,-0.6197,-0.6205,-0.6208,-0.6214,-0.6222,-0.6225,-0.6225,-0.6235,-0.6233,-0.6233,-0.6234,-0.6237,-0.6237,-0.6238,-0.6231,-0.6231,-0.6231,0,0,-0.6164,-0.6169,-0.6176,-0.6179,-0.6186,-0.6189,-0.619,-0.6197,-0.6199,-0.6206,-0.6207,-0.6212,-0.6222,-0.6226,-0.6229,-0.6235,-0.6236,-0.6237,-0.6238,-0.6241,-0.6241,-0.6242,-0.6243,-0.6244,-0.6237,-0.6237,-0.6237,0,-0.6167,-0.6176,-0.6179,-0.6185,-0.6188,-0.619,-0.6196,-0.6199,-0.6207,-0.6209,-0.6209,-0.622,-0.6224,-0.6232,-0.6233,-0.6236,-0.6237,-0.6236,-0.6241,-0.6242,-0.6242,-0.6243,-0.6244,-0.6237,-0.6237,-0.6237,-0.6237,0,-0.6178,-0.6184,-0.6188,-0.6195,-0.6199,-0.6205,-0.6208,-0.6211,-0.6212,-0.6215,-0.6221,-0.6226,-0.6232,-0.6234,-0.6236,-0.6241,-0.624,-0.624,-0.6239,-0.6242,-0.6244,-0.6244,-0.6237,-0.6237,-0.6237,-0.6237,0,0,-0.6188,-0.6195,-0.6196,-0.6198,-0.6204,-0.6209,-0.6214,-0.6219,-0.6221,-0.6226,-0.6229,-0.6237,-0.6236,-0.624,-0.6241,-0.6244,-0.6247,-0.6243,-0.6243,-0.6243,-0.6251,-0.6251,-0.6252,-0.6247,-0.6247,-0.6247,-0.6251,0,-0.6196,-0.6205,-0.6207,-0.6215,-0.622,-0.622,-0.6224,-0.6227,-0.6229,-0.6233,-0.6235,-0.624,-0.6239,-0.6241,-0.6243,-0.6246,-0.6248,-0.6246,-0.625,-0.625,-0.6248,-0.6252,-0.6253,-0.6256,-0.6251,-0.6251,-0.6251,0,-0.6207,-0.6211,-0.6219,-0.6222,-0.6224,-0.6228,-0.6232,-0.6236,-0.6239,-0.624,-0.6242,-0.6243,-0.6248,-0.6246,-0.6251,-0.6249,-0.6251,-0.6252,-0.6252,-0.6253,-0.6251,-0.6253,-0.6257,-0.6257,-0.6252,-0.6252,-0.6252,0,-0.6212,-0.622,-0.6225,-0.6227,-0.6231,-0.6233,-0.6235,-0.6238,-0.624,-0.6243,-0.6245,-0.6248,-0.625,-0.6253,-0.6254,-0.6253,-0.6259,-0.6258,-0.6259,-0.6259,-0.6261,-0.626,-0.6265,-0.6262,-0.6262,-0.6262,-0.6262,0,-0.6221,-0.6226,-0.6227,-0.623,-0.6235,-0.6236,-0.6241,-0.6242,-0.6244,-0.6247,-0.6248,-0.625,-0.6252,-0.6255,-0.6256,-0.6259,-0.626,-0.626,-0.6261,-0.626,-0.626,-0.6262,-0.6261,-0.6262,-0.6262,-0.6262,-0.6262,0,-0.6228,-0.6229,-0.6235,-0.6237,-0.6238,-0.6241,-0.6243,-0.6246,-0.6247,-0.625,-0.6251,-0.6253,-0.6256,-0.6257,-0.6261,-0.6261,-0.6265,-0.6265,-0.6264,-0.6264,-0.6265,-0.6265,-0.627,-0.6271,-0.6268,-0.6268,-0.6268,0,-0.6233,-0.6237,-0.6239,-0.6241,-0.6242,-0.6245,-0.6247,-0.6248,-0.625,-0.6252,-0.6254,-0.6257,-0.6259,-0.6263,-0.6265,-0.6267,-0.6267,-0.6269,-0.6268,-0.6266,-0.6266,-0.6266,-0.6266,-0.6269,-0.6269,-0.6269,-0.6269,0,-0.6242,-0.6242,-0.6245,-0.6247,-0.6249,-0.6251,-0.6253,-0.6254,-0.6255,-0.6257,-0.6259,-0.6261,-0.6264,-0.6266,-0.6268,-0.6269,-0.6269,-0.6269,-0.627,-0.6269,-0.6268,-0.6268,-0.6264,-0.6269,-0.6269,-0.6269,-0.6269,-0.6269,-0.6248,-0.6251,-0.6252,-0.6254,-0.6256,-0.6257,-0.6259,-0.6259,-0.6261,-0.6264,-0.6263,-0.6266,-0.6267,-0.6269,-0.627,-0.6272,-0.6271,-0.6272,-0.6272,-0.6272,-0.6272,-0.6268,-0.6272,-0.6272,-0.6272,-0.6272,-0.6272,0,-0.6257,-0.6257,-0.6259,-0.6261,-0.6262,-0.6261,-0.6263,-0.6264,-0.6266,-0.6267,-0.6268,-0.627,-0.6272,-0.6272,-0.6274,-0.6275,-0.6274,-0.6275,-0.6275,-0.6275,-0.6273,-0.6272,-0.6275,-0.6275,-0.6275,-0.6275,-0.6275,-0.6275,-0.6261,-0.6264,-0.6264,-0.6267,-0.6267,-0.6269,-0.627,-0.6271,-0.6271,-0.6273,-0.6274,-0.6274,-0.6275,-0.6276,-0.6277,-0.6277,-0.6277,-0.6277,-0.6277,-0.6275,-0.6275,-0.6275,-0.6274,-0.6278,-0.6278,-0.6279,-0.6279,-0.6279]}]]